Regional Weather Roundup
Issued by NWS Green Bay, WI

Home | Current Version | Previous Version | Graphics & Text | Print | Product List | Glossary Off
Versions: 1 2 3 4 5 6 7 8 9 10 11 12 13 14 15 16 17 18 19 20 21 22 23 24 25 26 27 28 29 30 31 32 33 34 35 36 37 38 39 40 41 42 43 44 45 46 47 48 49 50

000
ASUS43 KGRB 280459
RWRGRB

NORTH-CENTRAL AND NORTHEAST WISCONSIN REGIONAL WEATHER ROUNDUP
NATIONAL WEATHER SERVICE GREEN BAY WI
1100 PM CST SAT DEC 27 2014

WIZ005-009-010>012-018-019-280600-
NORTH CENTRAL WISCONSIN

CITY           SKY/WX    TMP DP  RH WIND       PRES   REMARKS
IRONWOOD       CLOUDY    16  10  79 SW8       29.96S WCI   5
MANITOWISH WTR NOT AVBL
ARBOR VITAE    NOT AVBL
EAGLE RIVER    NOT AVBL
LAND O LAKES   NOT AVBL
RHINELANDER    PTCLDY     9   7  92 W6        29.99S WCI  -1
PHILLIPS       MOCLDY    13  11  92 SW5       30.00S WCI   5
ANTIGO         NOT AVBL
TOMAHAWK       NOT AVBL
MERRILL        NOT AVBL
$$

WIZ013-073-280600-
NORTHEAST WISCONSIN

CITY           SKY/WX    TMP DP  RH WIND       PRES   REMARKS
IRON MOUNTAIN    N/A     19  14  81 W6        29.98R
MARINETTE      CLOUDY    28  21  74 NW9       30.02R
$$

WIZ017-030-035>037-045-280600-
CENTRAL WISCONSIN

CITY           SKY/WX    TMP DP  RH WIND       PRES   REMARKS
MEDFORD        NOT AVBL
WAUSAU         PTCLDY    16  13  88 SW9       30.04S WCI   4
MOSINEE        NOT AVBL
MARSHFIELD     CLEAR     16  12  84 W9        30.06R WCI   4
WISC RAPIDS    CLEAR     20  15  81 VRB7      30.10S
STEVENS POINT  NOT AVBL
WAUPACA        CLEAR     24  18  78 W7        30.09S
SHAWANO        CLEAR     25  19  77 W9        30.07R
CLINTONVILLE   CLEAR     23  18  80 W8        30.07S
$$

WIZ038-039-048-051-280600-
FOX VALLEY

CITY           SKY/WX    TMP DP  RH WIND       PRES   REMARKS
NWS GREEN BAY  CLOUDY    28  21  75 W13       30.07R
APPLETON       PTCLDY    27  21  80 W8        30.07R
OSHKOSH        CLOUDY    27  19  72 W13       30.09R
FOND DU LAC    PTCLDY    26  18  71 NW10      30.10R
$$

WIZ022-050-052-280600-
EAST CENTRAL WISCONSIN

CITY           SKY/WX    TMP DP  RH WIND       PRES   REMARKS
STURGEON BAY   CLEAR     28  19  69 W15       30.04R
MANITOWOC      NOT AVBL
SHEBOYGAN      CLOUDY    29  21  72 W16       30.07R
$$

LMZ563-521-522-541>543-280600-
LAKESHORE

STATION/POSITION TIME  TEMP    WIND        PRES    VSBY  WAVE
                       AIR SEA DIR/SP/G                  HT/PER
                 (UTC) (F)     (DEG/KT/KT) (MB)    (MI)  (FT/S)
SHEBOYGAN LKSHOR 0400   31 38  270/ 16/ 18 1018.5R
KEWAUNEE LKSHORE 0400   32     290/  8/ 14 1016.1R
NORTHPORT PIER   0400   31     300/ 11/ 17 1015.9R
SISTER BAY LKSHO 0400          280/ 18/ 22   N/A
CHAMBERS ISLAND  0400   30     240/  5/ 12 1016.6R
MENOMINEE LKSHOR 0400   30     250/  7/ 11 1017.3R
$$


USA.gov is the U.S. government's official web portal to all federal, state and local government web resources and services.